When you browse on this site, cookies collect data to enhance your experience and personalize the content and advertising you see.
Visit our Privacy Policy to learn more. By continuing to use the site, you agree to this use of cookies and data.
  • In Czech Republic
  • List of Countries
  • For 7 days
  • Water Temperature
  • Weather Map
  • Weather Widgets
  • user-avatar
    Login

    Hourly Weather Rosh Pinna

    Today, 31 May, Sunday

    Time Temperature Precipitation Wind Pressure Humidity
    00:00 +14°C° 0 mm 2 mps 714 mmHg 80%
    01:00 +13°C° 0 mm 2 mps 714 mmHg 82%
    02:00 +13°C° 0 mm 1 mps 714 mmHg 84%
    03:00 +13°C° 0 mm 1 mps 714 mmHg 84%
    04:00 +13°C° 0 mm 1 mps 714 mmHg 83%
    05:00 +13°C° 0 mm 1 mps 714 mmHg 83%
    06:00 +15°C° 0 mm 1 mps 714 mmHg 72%
    07:00 +19°C° 0 mm 1 mps 715 mmHg 61%
    08:00 +21°C° 0 mm 1 mps 715 mmHg 50%
    09:00 +21°C° 0 mm 2 mps 715 mmHg 46%
    10:00 +24°C° 0 mm 2 mps 715 mmHg 41%
    11:00 +26°C° 0 mm 2 mps 715 mmHg 36%
    12:00 +26°C° 0 mm 3 mps 715 mmHg 35%
    13:00 +27°C° 0 mm 4 mps 714 mmHg 33%
    14:00 +28°C° 0 mm 4 mps 714 mmHg 32%
    15:00 +26°C° 0 mm 4 mps 714 mmHg 37%
    16:00 +25°C° 0 mm 5 mps 713 mmHg 42%
    17:00 +22°C° 0 mm 5 mps 713 mmHg 47%
    18:00 +20°C° 0 mm 4 mps 713 mmHg 56%
    19:00 +18°C° 0 mm 3 mps 713 mmHg 64%
    20:00 +16°C° 0 mm 2 mps 713 mmHg 72%
    21:00 +16°C° 0 mm 2 mps 713 mmHg 75%
    22:00 +15°C° 0 mm 2 mps 713 mmHg 78%
    23:00 +15°C° 0 mm 2 mps 713 mmHg 80%

    Tomorrow, 1 June, Monday

    Time Temperature Precipitation Wind Pressure Humidity
    00:00 +15°C° 0 mm 2 mps 712 mmHg 82%
    01:00 +14°C° 0 mm 2 mps 712 mmHg 84%
    02:00 +14°C° 0 mm 1 mps 712 mmHg 85%
    03:00 +14°C° 0 mm 1 mps 712 mmHg 85%
    04:00 +14°C° 0 mm 1 mps 712 mmHg 84%
    05:00 +14°C° 0 mm 1 mps 712 mmHg 84%
    06:00 +16°C° 0 mm 1 mps 712 mmHg 71%
    07:00 +19°C° 0 mm 1 mps 713 mmHg 58%
    08:00 +22°C° 0 mm 1 mps 713 mmHg 46%
    09:00 +23°C° 0 mm 2 mps 713 mmHg 41%
    10:00 +25°C° 0 mm 2 mps 714 mmHg 36%
    11:00 +27°C° 0 mm 3 mps 714 mmHg 32%
    12:00 +27°C° 0 mm 4 mps 713 mmHg 31%
    13:00 +28°C° 0 mm 5 mps 713 mmHg 30%
    14:00 +28°C° 0 mm 6 mps 712 mmHg 29%
    15:00 +27°C° 0 mm 6 mps 712 mmHg 31%
    16:00 +27°C° 0 mm 5 mps 712 mmHg 32%
    17:00 +26°C° 0 mm 5 mps 712 mmHg 33%
    18:00 +23°C° 0 mm 4 mps 711 mmHg 37%
    19:00 +22°C° 0 mm 3 mps 711 mmHg 41%
    20:00 +21°C° 0 mm 1 mps 711 mmHg 45%
    21:00 +21°C° 0 mm 1 mps 711 mmHg 44%
    22:00 +21°C° 0 mm 1 mps 710 mmHg 43%
    23:00 +21°C° 0 mm 1 mps 710 mmHg 42%

    Day after tomorrow, 2 June, Tuesday

    Time Temperature Precipitation Wind Pressure Humidity
    00:00 +21°C° 0 mm 1 mps 710 mmHg 42%
    01:00 +20°C° 0 mm 1 mps 709 mmHg 41%
    02:00 +19°C° 0 mm 2 mps 709 mmHg 40%
    03:00 +20°C° 0 mm 2 mps 709 mmHg 40%
    04:00 +20°C° 0 mm 2 mps 709 mmHg 39%
    05:00 +21°C° 0 mm 1 mps 709 mmHg 38%
    06:00 +24°C° 0 mm 2 mps 709 mmHg 33%
    07:00 +26°C° 0 mm 3 mps 710 mmHg 28%
    08:00 +29°C° 0 mm 4 mps 710 mmHg 22%
    09:00 +32°C° 0 mm 4 mps 710 mmHg 20%
    10:00 +34°C° 0 mm 4 mps 710 mmHg 18%
    11:00 +36°C° 0 mm 5 mps 710 mmHg 16%
    12:00 +36°C° 0 mm 5 mps 709 mmHg 16%
    13:00 +38°C° 0 mm 6 mps 708 mmHg 16%
    14:00 +38°C° 0 mm 6 mps 708 mmHg 16%
    15:00 +35°C° 0 mm 6 mps 708 mmHg 18%
    16:00 +33°C° 0 mm 6 mps 707 mmHg 21%
    17:00 +32°C° 0 mm 6 mps 707 mmHg 23%
    18:00 +28°C° 0 mm 5 mps 708 mmHg 35%
    19:00 +25°C° 0 mm 4 mps 708 mmHg 47%
    20:00 +21°C° 0 mm 3 mps 708 mmHg 59%
    21:00 +20°C° 0 mm 3 mps 709 mmHg 69%
    22:00 +19°C° 0 mm 3 mps 709 mmHg 79%
    23:00 +18°C° 0 mm 3 mps 709 mmHg 89%

    3 June, Wednesday

    Time Temperature Precipitation Wind Pressure Humidity
    00:00 +18°C° 0.1 mm 3 mps 709 mmHg 89%
    01:00 +17°C° 0.1 mm 3 mps 709 mmHg 89%
    02:00 +17°C° 0.1 mm 3 mps 709 mmHg 89%
    03:00 +17°C° 0.1 mm 2 mps 709 mmHg 90%
    04:00 +16°C° 0.1 mm 2 mps 709 mmHg 91%
    05:00 +16°C° 0.1 mm 1 mps 710 mmHg 92%
    06:00 +18°C° 0 mm 2 mps 710 mmHg 81%
    07:00 +19°C° 0 mm 3 mps 710 mmHg 69%
    08:00 +21°C° 0 mm 4 mps 711 mmHg 58%
    09:00 +22°C° 0 mm 5 mps 711 mmHg 53%
    10:00 +23°C° 0 mm 6 mps 712 mmHg 49%
    11:00 +24°C° 0 mm 6 mps 712 mmHg 44%
    12:00 +24°C° 0 mm 6 mps 712 mmHg 44%
    13:00 +24°C° 0 mm 6 mps 712 mmHg 43%
    14:00 +24°C° 0 mm 6 mps 712 mmHg 43%
    15:00 +23°C° 0 mm 6 mps 712 mmHg 47%
    16:00 +22°C° 0 mm 5 mps 712 mmHg 51%
    17:00 +22°C° 0 mm 5 mps 712 mmHg 55%
    18:00 +20°C° 0 mm 4 mps 712 mmHg 63%
    19:00 +18°C° 0 mm 3 mps 712 mmHg 71%
    20:00 +17°C° 0 mm 2 mps 712 mmHg 79%
    21:00 +16°C° 0 mm 2 mps 712 mmHg 82%
    22:00 +16°C° 0 mm 1 mps 712 mmHg 84%
    23:00 +15°C° 0 mm 1 mps 712 mmHg 86%

    4 June, Thursday

    Time Temperature Precipitation Wind Pressure Humidity
    00:00 +15°C° 0 mm 1 mps 712 mmHg 87%
    01:00 +15°C° 0 mm 1 mps 712 mmHg 88%
    02:00 +14°C° 0 mm 1 mps 711 mmHg 89%
    03:00 +14°C° 0 mm 1 mps 711 mmHg 88%
    04:00 +14°C° 0 mm 1 mps 712 mmHg 87%
    05:00 +14°C° 0 mm 1 mps 712 mmHg 86%
    06:00 +16°C° 0 mm 1 mps 712 mmHg 76%
    07:00 +19°C° 0 mm 1 mps 713 mmHg 65%
    08:00 +21°C° 0 mm 1 mps 713 mmHg 55%
    09:00 +23°C° 0 mm 1 mps 713 mmHg 48%
    10:00 +25°C° 0 mm 2 mps 713 mmHg 42%
    11:00 +26°C° 0 mm 2 mps 714 mmHg 36%
    12:00 +27°C° 0 mm 3 mps 713 mmHg 36%
    13:00 +27°C° 0 mm 4 mps 713 mmHg 37%
    14:00 +27°C° 0 mm 5 mps 713 mmHg 38%
    15:00 +26°C° 0 mm 5 mps 713 mmHg 41%
    16:00 +25°C° 0 mm 5 mps 713 mmHg 45%
    17:00 +23°C° 0 mm 5 mps 712 mmHg 48%
    18:00 +21°C° 0 mm 4 mps 712 mmHg 56%
    19:00 +19°C° 0 mm 3 mps 712 mmHg 65%
    20:00 +17°C° 0 mm 3 mps 712 mmHg 73%
    21:00 +17°C° 0 mm 2 mps 712 mmHg 75%
    22:00 +16°C° 0 mm 2 mps 712 mmHg 78%
    23:00 +16°C° 0 mm 2 mps 712 mmHg 81%

    5 June, Friday

    Time Temperature Precipitation Wind Pressure Humidity
    00:00 +15°C° 0 mm 1 mps 712 mmHg 82%
    01:00 +15°C° 0 mm 1 mps 712 mmHg 84%
    02:00 +14°C° 0 mm 1 mps 712 mmHg 86%
    03:00 +14°C° 0 mm 1 mps 712 mmHg 85%
    04:00 +13°C° 0 mm 0 mps 712 mmHg 85%
    05:00 +13°C° 0 mm 0 mps 712 mmHg 85%
    06:00 +16°C° 0 mm 1 mps 713 mmHg 74%
    07:00 +20°C° 0 mm 1 mps 713 mmHg 62%
    08:00 +22°C° 0 mm 1 mps 714 mmHg 51%
    09:00 +23°C° 0 mm 2 mps 714 mmHg 46%
    10:00 +25°C° 0 mm 2 mps 714 mmHg 42%
    11:00 +26°C° 0 mm 3 mps 714 mmHg 37%
    12:00 +27°C° 0 mm 4 mps 714 mmHg 38%
    13:00 +27°C° 0 mm 5 mps 714 mmHg 39%
    14:00 +27°C° 0 mm 6 mps 713 mmHg 40%
    15:00 +26°C° 0 mm 5 mps 713 mmHg 42%
    16:00 +25°C° 0 mm 5 mps 713 mmHg 44%
    17:00 +23°C° 0 mm 5 mps 713 mmHg 45%
    18:00 +22°C° 0 mm 4 mps 713 mmHg 54%
    19:00 +20°C° 0 mm 3 mps 713 mmHg 62%
    20:00 +18°C° 0 mm 2 mps 713 mmHg 71%
    21:00 +17°C° 0 mm 2 mps 713 mmHg 75%
    22:00 +17°C° 0 mm 2 mps 713 mmHg 78%
    23:00 +16°C° 0 mm 2 mps 713 mmHg 82%
    Show more